Time,TemperatureF,DewpointF,PressureIn,WindDirection,WindDirectionDegrees,WindSpeedMPH,WindSpeedGustMPH,Humidity,HourlyPrecipIn,Conditions,Clouds,dailyrainin,SoftwareType,DateUTC
2013-04-30 00:07:00,63.0,62.0,30.04,South,171,2.0,-999.0,97,-99.99,,,0.00,weatherlink.com 1.10,2013-04-30 04:07:00,
2013-04-30 00:22:00,63.0,62.0,30.04,SSE,164,4.0,-999.0,97,-99.99,,,0.00,weatherlink.com 1.10,2013-04-30 04:22:00,
2013-04-30 00:37:00,62.9,62.0,30.05,SSW,207,0.0,-999.0,97,-99.99,,,0.00,weatherlink.com 1.10,2013-04-30 04:37:00,
2013-04-30 00:52:00,63.0,62.0,30.05,South,190,4.0,-999.0,97,-99.99,,,0.00,weatherlink.com 1.10,2013-04-30 04:52:00,
2013-04-30 01:07:00,63.0,62.0,30.05,SSW,195,2.0,-999.0,97,-99.99,,,0.00,weatherlink.com 1.10,2013-04-30 05:07:00,
2013-04-30 01:22:00,62.8,62.0,30.05,SSW,195,1.0,-999.0,97,-99.99,,,0.00,weatherlink.com 1.10,2013-04-30 05:22:00,
2013-04-30 01:37:00,62.9,62.0,30.04,SSW,195,0.0,-999.0,97,-99.99,,,0.00,weatherlink.com 1.10,2013-04-30 05:37:00,
2013-04-30 01:53:00,62.9,62.0,30.03,SSW,195,0.0,-999.0,97,-99.99,,,0.00,weatherlink.com 1.10,2013-04-30 05:53:00,
2013-04-30 02:08:00,62.9,62.0,30.03,SSW,195,0.0,-999.0,97,-99.99,,,0.00,weatherlink.com 1.10,2013-04-30 06:08:00,
2013-04-30 02:23:00,62.5,62.0,30.02,SSW,195,2.0,-999.0,97,-99.99,,,0.00,weatherlink.com 1.10,2013-04-30 06:23:00,
2013-04-30 02:38:00,62.8,62.0,30.02,North,9,3.0,-999.0,97,-99.99,,,0.00,weatherlink.com 1.10,2013-04-30 06:38:00,
2013-04-30 02:53:00,63.1,62.0,30.02,North,5,0.0,-999.0,97,-99.99,,,0.00,weatherlink.com 1.10,2013-04-30 06:53:00,
2013-04-30 03:08:00,63.0,62.0,30.02,NNE,17,2.0,-999.0,97,-99.99,,,0.00,weatherlink.com 1.10,2013-04-30 07:08:00,
2013-04-30 03:23:00,63.4,63.0,30.02,North,360,2.0,-999.0,98,-99.99,,,0.00,weatherlink.com 1.10,2013-04-30 07:23:00,
2013-04-30 03:38:00,63.4,63.0,30.03,NW,325,3.0,-999.0,97,-99.99,,,0.00,weatherlink.com 1.10,2013-04-30 07:38:00,
2013-04-30 03:53:00,63.3,63.0,30.03,North,350,1.0,-999.0,97,-99.99,,,0.00,weatherlink.com 1.10,2013-04-30 07:53:00,
2013-04-30 04:08:00,63.3,63.0,30.03,North,5,1.0,-999.0,98,-99.99,,,0.00,weatherlink.com 1.10,2013-04-30 08:08:00,
2013-04-30 04:23:00,63.5,63.0,30.04,North,5,3.0,-999.0,98,-99.99,,,0.00,weatherlink.com 1.10,2013-04-30 08:23:00,
2013-04-30 04:38:00,63.5,63.0,30.03,North,355,5.0,-999.0,98,-99.99,,,0.00,weatherlink.com 1.10,2013-04-30 08:38:00,
2013-04-30 04:53:00,63.5,63.0,30.03,North,355,3.0,-999.0,98,-99.99,,,0.00,weatherlink.com 1.10,2013-04-30 08:53:00,
2013-04-30 05:08:00,63.5,63.0,30.04,NNE,25,2.0,-999.0,98,-99.99,,,0.00,weatherlink.com 1.10,2013-04-30 09:08:00,
2013-04-30 05:23:00,63.2,63.0,30.05,NNW,346,3.0,-999.0,98,-99.99,,,0.00,weatherlink.com 1.10,2013-04-30 09:23:00,
2013-04-30 05:38:00,63.0,63.0,30.05,NNW,345,4.0,-999.0,98,-99.99,,,0.00,weatherlink.com 1.10,2013-04-30 09:38:00,
2013-04-30 05:53:00,63.0,63.0,30.05,NNW,329,2.0,-999.0,98,-99.99,,,0.00,weatherlink.com 1.10,2013-04-30 09:53:00,
2013-04-30 06:08:00,63.2,63.0,30.06,NNW,343,2.0,-999.0,98,-99.99,,,0.00,weatherlink.com 1.10,2013-04-30 10:08:00,
2013-04-30 06:23:00,62.9,62.0,30.07,NNE,13,3.0,-999.0,98,-99.99,,,0.00,weatherlink.com 1.10,2013-04-30 10:23:00,
2013-04-30 06:38:00,62.7,62.0,30.07,North,351,3.0,-999.0,98,-99.99,,,0.00,weatherlink.com 1.10,2013-04-30 10:38:00,
2013-04-30 06:53:00,62.6,62.0,30.08,NNE,14,5.0,-999.0,98,-99.99,,,0.00,weatherlink.com 1.10,2013-04-30 10:53:00,
2013-04-30 07:08:00,62.7,62.0,30.08,North,355,4.0,-999.0,98,-99.99,,,0.00,weatherlink.com 1.10,2013-04-30 11:08:00,
2013-04-30 07:23:00,62.8,62.0,30.08,North,5,0.0,-999.0,98,-99.99,,,0.00,weatherlink.com 1.10,2013-04-30 11:23:00,
2013-04-30 07:38:00,62.9,62.0,30.09,NNW,338,2.0,-999.0,98,-99.99,,,0.00,weatherlink.com 1.10,2013-04-30 11:38:00,
2013-04-30 07:53:00,62.9,62.0,30.09,NNW,342,1.0,-999.0,98,-99.99,,,0.00,weatherlink.com 1.10,2013-04-30 11:53:00,
2013-04-30 08:08:00,63.2,63.0,30.09,NNW,329,3.0,-999.0,98,-99.99,,,0.00,weatherlink.com 1.10,2013-04-30 12:08:00,
2013-04-30 08:23:00,63.5,63.0,30.09,NE,44,4.0,-999.0,98,-99.99,,,0.00,weatherlink.com 1.10,2013-04-30 12:23:00,
2013-04-30 08:38:00,63.6,63.0,30.10,NE,36,3.0,-999.0,98,-99.99,,,0.00,weatherlink.com 1.10,2013-04-30 12:38:00,
2013-04-30 08:53:00,64.0,64.0,30.10,NE,40,5.0,-999.0,98,-99.99,,,0.00,weatherlink.com 1.10,2013-04-30 12:53:00,
2013-04-30 09:08:00,64.7,64.0,30.10,ENE,69,4.0,-999.0,98,-99.99,,,0.00,weatherlink.com 1.10,2013-04-30 13:08:00,
2013-04-30 09:23:00,64.5,64.0,30.10,NE,44,6.0,-999.0,98,-99.99,,,0.00,weatherlink.com 1.10,2013-04-30 13:23:00,
2013-04-30 09:38:00,65.5,65.0,30.10,ENE,74,3.0,-999.0,98,-99.99,,,0.00,weatherlink.com 1.10,2013-04-30 13:38:00,
2013-04-30 09:53:00,66.7,66.0,30.10,NE,53,7.0,-999.0,98,-99.99,,,0.00,weatherlink.com 1.10,2013-04-30 13:53:00,
2013-04-30 10:08:00,67.4,67.0,30.09,ENE,69,11.0,-999.0,97,-99.99,,,0.00,weatherlink.com 1.10,2013-04-30 14:08:00,
2013-04-30 10:23:00,67.4,66.0,30.10,ENE,64,7.0,-999.0,95,-99.99,,,0.00,weatherlink.com 1.10,2013-04-30 14:23:00,
2013-04-30 10:38:00,67.9,66.0,30.10,ENE,65,7.0,-999.0,94,-99.99,,,0.00,weatherlink.com 1.10,2013-04-30 14:38:00,
2013-04-30 10:53:00,69.5,67.0,30.10,East,97,5.0,-999.0,92,-99.99,,,0.00,weatherlink.com 1.10,2013-04-30 14:53:00,
2013-04-30 11:08:00,71.2,68.0,30.10,NE,36,6.0,-999.0,88,-99.99,,,0.00,weatherlink.com 1.10,2013-04-30 15:08:00,
2013-04-30 11:23:00,71.8,67.0,30.11,ESE,117,9.0,-999.0,84,-99.99,,,0.00,weatherlink.com 1.10,2013-04-30 15:23:00,
2013-04-30 11:38:00,69.1,65.0,30.11,SE,134,8.0,-999.0,86,-99.99,,,0.00,weatherlink.com 1.10,2013-04-30 15:38:00,
2013-04-30 11:53:00,68.6,65.0,30.10,ESE,112,8.0,-999.0,88,-99.99,,,0.00,weatherlink.com 1.10,2013-04-30 15:53:00,
2013-04-30 12:08:00,67.3,64.0,30.10,SE,142,12.0,-999.0,88,-99.99,,,0.00,weatherlink.com 1.10,2013-04-30 16:08:00,
2013-04-30 12:23:00,66.0,63.0,30.09,SE,138,10.0,-999.0,91,-99.99,,,0.00,weatherlink.com 1.10,2013-04-30 16:23:00,
2013-04-30 12:38:00,65.7,63.0,30.10,SE,135,11.0,-999.0,92,-99.99,,,0.00,weatherlink.com 1.10,2013-04-30 16:38:00,
2013-04-30 12:53:00,66.6,64.0,30.09,ESE,121,11.0,-999.0,91,-99.99,,,0.00,weatherlink.com 1.10,2013-04-30 16:53:00,
2013-04-30 13:08:00,68.3,64.0,30.09,ESE,115,9.0,-999.0,87,-99.99,,,0.00,weatherlink.com 1.10,2013-04-30 17:08:00,
2013-04-30 13:24:00,68.6,64.0,30.08,SE,128,9.0,-999.0,86,-99.99,,,0.00,weatherlink.com 1.10,2013-04-30 17:24:00,
2013-04-30 13:39:00,68.6,64.0,30.08,SE,125,7.0,-999.0,86,-99.99,,,0.00,weatherlink.com 1.10,2013-04-30 17:39:00,
2013-04-30 13:54:00,69.2,65.0,30.07,ESE,119,8.0,-999.0,85,-99.99,,,0.00,weatherlink.com 1.10,2013-04-30 17:54:00,
2013-04-30 14:09:00,68.5,64.0,30.07,ESE,121,8.0,-999.0,86,-99.99,,,0.00,weatherlink.com 1.10,2013-04-30 18:09:00,
2013-04-30 14:24:00,68.0,63.0,30.07,SE,136,11.0,-999.0,85,-99.99,,,0.00,weatherlink.com 1.10,2013-04-30 18:24:00,
2013-04-30 14:39:00,66.7,63.0,30.07,SE,135,11.0,-999.0,88,-99.99,,,0.00,weatherlink.com 1.10,2013-04-30 18:39:00,
2013-04-30 14:54:00,66.3,63.0,30.07,SE,132,12.0,-999.0,89,-99.99,,,0.00,weatherlink.com 1.10,2013-04-30 18:54:00,
2013-04-30 15:09:00,66.2,63.0,30.07,SE,136,10.0,-999.0,89,-99.99,,,0.00,weatherlink.com 1.10,2013-04-30 19:09:00,
2013-04-30 15:24:00,65.9,63.0,30.07,SE,132,14.0,-999.0,90,-99.99,,,0.00,weatherlink.com 1.10,2013-04-30 19:24:00,
2013-04-30 15:39:00,66.0,63.0,30.07,ESE,122,12.0,-999.0,90,-99.99,,,0.00,weatherlink.com 1.10,2013-04-30 19:39:00,
2013-04-30 15:54:00,66.5,64.0,30.07,ESE,121,12.0,-999.0,90,-99.99,,,0.00,weatherlink.com 1.10,2013-04-30 19:54:00,
2013-04-30 16:09:00,66.7,63.0,30.06,SE,130,14.0,-999.0,88,-99.99,,,0.00,weatherlink.com 1.10,2013-04-30 20:09:00,
2013-04-30 16:24:00,66.7,63.0,30.06,ESE,105,11.0,-999.0,89,-99.99,,,0.00,weatherlink.com 1.10,2013-04-30 20:24:00,
2013-04-30 16:39:00,66.7,63.0,30.06,ESE,103,11.0,-999.0,88,-99.99,,,0.00,weatherlink.com 1.10,2013-04-30 20:39:00,
2013-04-30 16:54:00,66.9,63.0,30.06,ESE,105,8.0,-999.0,88,-99.99,,,0.00,weatherlink.com 1.10,2013-04-30 20:54:00,
2013-04-30 17:09:00,67.0,63.0,30.06,ESE,109,12.0,-999.0,88,-99.99,,,0.00,weatherlink.com 1.10,2013-04-30 21:09:00,
2013-04-30 17:24:00,66.3,63.0,30.07,ESE,121,13.0,-999.0,89,-99.99,,,0.00,weatherlink.com 1.10,2013-04-30 21:24:00,
2013-04-30 17:39:00,66.2,63.0,30.07,ESE,119,13.0,-999.0,89,-99.99,,,0.00,weatherlink.com 1.10,2013-04-30 21:39:00,
2013-04-30 17:54:00,66.2,63.0,30.07,ESE,107,12.0,-999.0,89,-99.99,,,0.00,weatherlink.com 1.10,2013-04-30 21:54:00,
2013-04-30 18:09:00,66.6,63.0,30.07,ESE,105,12.0,-999.0,89,-99.99,,,0.00,weatherlink.com 1.10,2013-04-30 22:09:00,
2013-04-30 18:24:00,66.3,63.0,30.08,ESE,112,9.0,-999.0,88,-99.99,,,0.00,weatherlink.com 1.10,2013-04-30 22:24:00,
2013-04-30 18:39:00,66.0,63.0,30.08,East,100,9.0,-999.0,89,-99.99,,,0.00,weatherlink.com 1.10,2013-04-30 22:39:00,
2013-04-30 18:54:00,65.9,63.0,30.08,East,100,9.0,-999.0,89,-99.99,,,0.00,weatherlink.com 1.10,2013-04-30 22:54:00,
2013-04-30 19:09:00,65.8,63.0,30.09,ESE,111,11.0,-999.0,89,-99.99,,,0.00,weatherlink.com 1.10,2013-04-30 23:09:00,
2013-04-30 19:24:00,65.9,63.0,30.09,East,97,7.0,-999.0,90,-99.99,,,0.00,weatherlink.com 1.10,2013-04-30 23:24:00,
2013-04-30 19:39:00,65.8,63.0,30.10,East,101,5.0,-999.0,91,-99.99,,,0.00,weatherlink.com 1.10,2013-04-30 23:39:00,
2013-04-30 19:54:00,65.6,63.0,30.10,ENE,73,0.0,-999.0,91,-99.99,,,0.00,weatherlink.com 1.10,2013-04-30 23:54:00,
2013-04-30 20:09:00,65.6,63.0,30.10,ESE,103,4.0,-999.0,92,-99.99,,,0.00,weatherlink.com 1.10,2013-05-01 00:09:00,
2013-04-30 20:24:00,65.4,63.0,30.11,East,92,7.0,-999.0,92,-99.99,,,0.00,weatherlink.com 1.10,2013-05-01 00:24:00,
2013-04-30 20:39:00,65.7,64.0,30.11,NNE,15,8.0,-999.0,93,-99.99,,,0.00,weatherlink.com 1.10,2013-05-01 00:39:00,
2013-04-30 20:54:00,66.3,64.0,30.11,NE,45,5.0,-999.0,91,-99.99,,,0.00,weatherlink.com 1.10,2013-05-01 00:54:00,
2013-04-30 21:09:00,66.2,64.0,30.12,East,84,8.0,-999.0,91,-99.99,,,0.00,weatherlink.com 1.10,2013-05-01 01:09:00,
2013-04-30 21:24:00,66.2,63.0,30.13,NE,54,7.0,-999.0,90,-99.99,,,0.00,weatherlink.com 1.10,2013-05-01 01:24:00,
2013-04-30 21:39:00,66.0,63.0,30.13,NNE,22,8.0,-999.0,90,-99.99,,,0.00,weatherlink.com 1.10,2013-05-01 01:39:00,
2013-04-30 21:54:00,65.8,63.0,30.14,NE,38,8.0,-999.0,90,-99.99,,,0.00,weatherlink.com 1.10,2013-05-01 01:54:00,
2013-04-30 22:09:00,65.5,63.0,30.14,NNE,27,8.0,-999.0,91,-99.99,,,0.00,weatherlink.com 1.10,2013-05-01 02:09:00,
2013-04-30 22:24:00,65.3,63.0,30.14,NE,49,7.0,-999.0,91,-99.99,,,0.00,weatherlink.com 1.10,2013-05-01 02:24:00,
2013-04-30 22:39:00,65.0,62.0,30.15,NNE,32,6.0,-999.0,91,-99.99,,,0.00,weatherlink.com 1.10,2013-05-01 02:39:00,
2013-04-30 22:54:00,64.6,62.0,30.15,NNE,30,6.0,-999.0,90,-99.99,,,0.00,weatherlink.com 1.10,2013-05-01 02:54:00,
2013-04-30 23:09:00,64.2,61.0,30.14,NNE,30,8.0,-999.0,90,-99.99,,,0.00,weatherlink.com 1.10,2013-05-01 03:09:00,
2013-04-30 23:24:00,63.9,61.0,30.14,NNE,17,6.0,-999.0,90,-99.99,,,0.00,weatherlink.com 1.10,2013-05-01 03:24:00,
2013-04-30 23:39:00,63.6,61.0,30.14,NNE,30,7.0,-999.0,90,-99.99,,,0.00,weatherlink.com 1.10,2013-05-01 03:39:00,
2013-04-30 23:54:00,63.2,60.0,30.14,NNE,23,2.0,-999.0,90,-99.99,,,0.00,weatherlink.com 1.10,2013-05-01 03:54:00,